Location: Val-d'Or
(48.1170°N, 77.7670°W)
Time: 05:06:30
(UTC-04:00)

ISS - Pass Details

Date: 25 May 2018
Orbit: 402 x 407 km, 51.6° (Epoch: 24 May)

Event Time Altitude Azimuth Distance (km) Brightness Sun altitude
Rises 02:15:41 0° 292° (WNW) 2,320 0.1 -19.3°
Reaches altitude 10° 02:17:47 10° 288° (WNW) 1,458 -1.0 -19.2°
Enters shadow 02:18:38 17° 284° (WNW) 1,123 -1.7 -19.1°
